Powrót do katalogu

STARLINK-3158

AktywnyŁącznośćVLEO
NORAD 49432·PAYLOAD·🇺🇸 United States

Wystrzelony Nov 13, 2021 z Cape Canaveral Space Force Station

Loading…

Następne Przeloty (najbliższe 24 godziny)

TLE

ŚwieżeSource: CelesTrak SupGP

Epoka: Sep 15, 2026, 01:29 UTC

1 49432C 21104AA  26258.06229167 -.00019114  00000+0 -61468-3 0  2589
2 49432  53.1576  77.1739 0001277  82.3948 173.3084 15.31710817    17

Śledź STARLINK-3158 w czasie rzeczywistym z AllMySat

Download on the App Store